TimeEDT,TemperatureF,Dew PointF,Humidity,Sea Level PressureIn,VisibilityMPH,Wind Direction,Wind SpeedMPH,Gust SpeedMPH,PrecipitationIn,Events,Conditions,WindDirDegrees,DateUTC
12:54 AM,72.0,64.0,76,29.95,10.0,SW,6.9,-,N/A,,Partly Cloudy,220,2013-06-25 04:54:00
1:54 AM,71.1,64.0,78,29.94,10.0,SW,5.8,-,N/A,,Partly Cloudy,220,2013-06-25 05:54:00
2:54 AM,71.1,64.0,78,29.93,10.0,SW,6.9,-,N/A,,Scattered Clouds,220,2013-06-25 06:54:00
3:54 AM,71.1,64.9,81,29.91,10.0,SW,8.1,-,N/A,,Partly Cloudy,220,2013-06-25 07:54:00
4:54 AM,72.0,64.9,78,29.90,10.0,SW,8.1,-,N/A,,Partly Cloudy,220,2013-06-25 08:54:00
5:54 AM,72.0,64.9,78,29.90,10.0,SW,8.1,-,N/A,,Mostly Cloudy,220,2013-06-25 09:54:00
6:54 AM,72.0,64.9,78,29.90,10.0,SW,8.1,-,N/A,,Mostly Cloudy,220,2013-06-25 10:54:00
7:54 AM,73.9,66.0,76,29.90,10.0,SW,8.1,-,N/A,,Overcast,220,2013-06-25 11:54:00
8:54 AM,75.0,66.9,76,29.89,10.0,SW,8.1,-,N/A,,Overcast,220,2013-06-25 12:54:00
9:54 AM,77.0,68.0,74,29.90,10.0,SW,10.4,-,N/A,,Overcast,220,2013-06-25 13:54:00
10:20 AM,75.2,66.2,73,29.92,10.0,WSW,20.7,32.2,0.00,Rain,Light Rain,250,2013-06-25 14:20:00
10:41 AM,73.4,66.2,78,29.91,10.0,WSW,9.2,-,0.00,Rain,Light Rain,250,2013-06-25 14:41:00
10:54 AM,73.9,66.9,79,29.91,10.0,WSW,9.2,-,0.00,,Overcast,240,2013-06-25 14:54:00
11:54 AM,80.1,66.9,64,29.89,10.0,WSW,18.4,28.8,N/A,,Overcast,240,2013-06-25 15:54:00
12:54 PM,81.0,66.0,60,29.87,10.0,West,18.4,27.6,N/A,,Mostly Cloudy,260,2013-06-25 16:54:00
1:54 PM,77.0,68.0,74,29.87,10.0,West,8.1,-,0.00,,Overcast,280,2013-06-25 17:54:00
2:54 PM,81.0,68.0,65,29.86,10.0,West,15.0,19.6,N/A,,Overcast,270,2013-06-25 18:54:00
3:54 PM,81.0,68.0,65,29.86,10.0,West,9.2,-,N/A,,Overcast,270,2013-06-25 19:54:00
4:54 PM,82.0,68.0,62,29.83,10.0,West,17.3,24.2,N/A,,Mostly Cloudy,260,2013-06-25 20:54:00
5:54 PM,82.0,66.9,60,29.81,10.0,West,13.8,23.0,N/A,,Mostly Cloudy,260,2013-06-25 21:54:00
6:54 PM,80.1,64.9,60,29.80,10.0,WSW,17.3,24.2,N/A,,Scattered Clouds,250,2013-06-25 22:54:00
7:54 PM,78.1,63.0,60,29.81,10.0,WSW,15.0,-,N/A,,Mostly Cloudy,240,2013-06-25 23:54:00
8:54 PM,75.9,63.0,64,29.81,10.0,WSW,10.4,-,N/A,,Mostly Cloudy,240,2013-06-26 00:54:00
9:54 PM,75.0,62.1,64,29.83,10.0,WSW,9.2,-,N/A,,Overcast,240,2013-06-26 01:54:00
10:54 PM,73.0,64.0,73,29.84,10.0,North,3.5,-,0.00,Rain,Light Rain,350,2013-06-26 02:54:00
11:54 PM,72.0,64.0,76,29.82,10.0,WSW,9.2,-,0.00,Rain,Light Rain,250,2013-06-26 03:54:00